When you browse on this site, cookies collect data to enhance your experience and personalize the content and advertising you see.
Visit our Privacy Policy to learn more. By continuing to use the site, you agree to this use of cookies and data.
  • In United Kingdom
  • List of Countries
  • For 7 days
  • Water Temperature
  • Satellite Maps
  • Weather Map
  • Weather Widgets
  • user-avatar
    Login

    Hourly Weather Blagoevgrad

    Today, 16 February, Saturday

    Time Temperature Precipitation Wind Pressure Humidity
    00:00 -1°C° 0 mm 2 mps 729 mmHg 81%
    01:00 -2°C° 0 mm 2 mps 729 mmHg 81%
    02:00 -2°C° 0 mm 2 mps 729 mmHg 81%
    03:00 -2°C° 0 mm 2 mps 729 mmHg 81%
    04:00 -2°C° 0 mm 2 mps 729 mmHg 80%
    05:00 -2°C° 0 mm 2 mps 729 mmHg 80%
    06:00 -1°C° 0 mm 2 mps 729 mmHg 79%
    07:00 -1°C° 0 mm 2 mps 729 mmHg 77%
    08:00 -1°C° 0 mm 2 mps 729 mmHg 75%
    09:00 +2°C° 0 mm 2 mps 730 mmHg 68%
    10:00 +3°C° 0 mm 3 mps 730 mmHg 60%
    11:00 +5°C° 0 mm 3 mps 730 mmHg 52%
    12:00 +7°C° 0 mm 3 mps 730 mmHg 50%
    13:00 +8°C° 0 mm 3 mps 729 mmHg 48%
    14:00 +9°C° 0 mm 3 mps 729 mmHg 45%
    15:00 +8°C° 0 mm 3 mps 729 mmHg 49%
    16:00 +8°C° 0 mm 2 mps 728 mmHg 52%
    17:00 +7°C° 0 mm 2 mps 728 mmHg 55%
    18:00 +6°C° 0 mm 2 mps 728 mmHg 58%
    19:00 +4°C° 0 mm 2 mps 728 mmHg 62%
    20:00 +2°C° 0 mm 2 mps 729 mmHg 66%
    21:00 +2°C° 0 mm 2 mps 729 mmHg 64%
    22:00 +2°C° 0 mm 2 mps 729 mmHg 63%
    23:00 +2°C° 0 mm 2 mps 729 mmHg 61%

    Tomorrow, 17 February, Sunday

    Time Temperature Precipitation Wind Pressure Humidity
    00:00 +3°C° 0 mm 1 mps 729 mmHg 60%
    01:00 +3°C° 0 mm 1 mps 729 mmHg 58%
    02:00 +3°C° 0 mm 1 mps 729 mmHg 57%
    03:00 +3°C° 0 mm 1 mps 729 mmHg 56%
    04:00 +3°C° 0 mm 1 mps 728 mmHg 55%
    05:00 +3°C° 0 mm 1 mps 728 mmHg 54%
    06:00 +3°C° 0 mm 1 mps 728 mmHg 53%
    07:00 +4°C° 0 mm 1 mps 728 mmHg 52%
    08:00 +4°C° 0 mm 1 mps 728 mmHg 51%
    09:00 +7°C° 0 mm 1 mps 728 mmHg 47%
    10:00 +9°C° 0 mm 1 mps 728 mmHg 44%
    11:00 +11°C° 0 mm 1 mps 728 mmHg 40%
    12:00 +12°C° 0 mm 1 mps 728 mmHg 40%
    13:00 +13°C° 0 mm 1 mps 727 mmHg 39%
    14:00 +14°C° 0 mm 2 mps 727 mmHg 39%
    15:00 +13°C° 0 mm 1 mps 726 mmHg 43%
    16:00 +12°C° 0 mm 1 mps 726 mmHg 47%
    17:00 +12°C° 0 mm 1 mps 726 mmHg 51%
    18:00 +10°C° 0 mm 1 mps 726 mmHg 54%
    19:00 +9°C° 0 mm 1 mps 726 mmHg 56%
    20:00 +7°C° 0 mm 1 mps 726 mmHg 59%
    21:00 +7°C° 0 mm 1 mps 726 mmHg 59%
    22:00 +6°C° 0 mm 1 mps 726 mmHg 60%
    23:00 +6°C° 0 mm 1 mps 726 mmHg 60%

    Day after tomorrow, 18 February, Monday

    Time Temperature Precipitation Wind Pressure Humidity
    00:00 +6°C° 0 mm 1 mps 726 mmHg 60%
    01:00 +6°C° 0 mm 1 mps 726 mmHg 59%
    02:00 +5°C° 0 mm 1 mps 726 mmHg 59%
    03:00 +5°C° 0 mm 1 mps 726 mmHg 58%
    04:00 +5°C° 0 mm 1 mps 725 mmHg 58%
    05:00 +5°C° 0 mm 1 mps 725 mmHg 57%
    06:00 +5°C° 0 mm 1 mps 725 mmHg 56%
    07:00 +6°C° 0 mm 1 mps 725 mmHg 56%
    08:00 +6°C° 0 mm 1 mps 726 mmHg 55%
    09:00 +8°C° 0 mm 1 mps 726 mmHg 50%
    10:00 +11°C° 0 mm 1 mps 726 mmHg 46%
    11:00 +12°C° 0 mm 0 mps 726 mmHg 41%
    12:00 +14°C° 0 mm 1 mps 726 mmHg 40%
    13:00 +14°C° 0 mm 1 mps 725 mmHg 39%
    14:00 +15°C° 0 mm 1 mps 725 mmHg 38%
    15:00 +14°C° 0 mm 1 mps 725 mmHg 41%
    16:00 +13°C° 0 mm 0 mps 725 mmHg 45%
    17:00 +12°C° 0 mm 0 mps 724 mmHg 48%
    18:00 +11°C° 0 mm 0 mps 725 mmHg 51%
    19:00 +9°C° 0 mm 0 mps 725 mmHg 54%
    20:00 +8°C° 0 mm 1 mps 725 mmHg 56%
    21:00 +8°C° 0 mm 1 mps 725 mmHg 58%
    22:00 +7°C° 0 mm 1 mps 725 mmHg 59%
    23:00 +7°C° 0 mm 1 mps 726 mmHg 61%

    19 February, Tuesday

    Time Temperature Precipitation Wind Pressure Humidity
    00:00 +7°C° 0 mm 1 mps 725 mmHg 62%
    01:00 +6°C° 0 mm 1 mps 725 mmHg 62%
    02:00 +6°C° 0 mm 1 mps 725 mmHg 63%
    03:00 +6°C° 0 mm 1 mps 725 mmHg 64%
    04:00 +6°C° 0 mm 1 mps 725 mmHg 64%
    05:00 +6°C° 0 mm 1 mps 725 mmHg 64%
    06:00 +6°C° 0 mm 1 mps 725 mmHg 63%
    07:00 +6°C° 0 mm 1 mps 725 mmHg 62%
    08:00 +6°C° 0 mm 1 mps 726 mmHg 62%
    09:00 +8°C° 0 mm 1 mps 726 mmHg 56%
    10:00 +10°C° 0 mm 1 mps 726 mmHg 50%
    11:00 +12°C° 0 mm 1 mps 726 mmHg 44%
    12:00 +13°C° 0 mm 1 mps 726 mmHg 43%
    13:00 +14°C° 0 mm 1 mps 725 mmHg 41%
    14:00 +14°C° 0 mm 2 mps 725 mmHg 39%
    15:00 +14°C° 0 mm 1 mps 725 mmHg 42%
    16:00 +13°C° 0 mm 1 mps 724 mmHg 45%
    17:00 +13°C° 0 mm 1 mps 724 mmHg 48%
    18:00 +11°C° 0 mm 1 mps 724 mmHg 52%
    19:00 +10°C° 0 mm 1 mps 724 mmHg 57%
    20:00 +8°C° 0 mm 1 mps 724 mmHg 62%
    21:00 +7°C° 0 mm 1 mps 725 mmHg 63%
    22:00 +7°C° 0 mm 1 mps 725 mmHg 65%
    23:00 +7°C° 0 mm 1 mps 725 mmHg 67%

    20 February, Wednesday

    Time Temperature Precipitation Wind Pressure Humidity
    00:00 +6°C° 0 mm 1 mps 725 mmHg 67%
    01:00 +6°C° 0 mm 1 mps 725 mmHg 68%
    02:00 +6°C° 0 mm 1 mps 725 mmHg 69%
    03:00 +6°C° 0 mm 1 mps 725 mmHg 69%
    04:00 +5°C° 0 mm 1 mps 724 mmHg 69%
    05:00 +5°C° 0 mm 1 mps 724 mmHg 69%
    06:00 +5°C° 0 mm 1 mps 725 mmHg 68%
    07:00 +6°C° 0 mm 1 mps 725 mmHg 68%
    08:00 +6°C° 0 mm 1 mps 725 mmHg 67%
    09:00 +8°C° 0 mm 1 mps 725 mmHg 59%
    10:00 +10°C° 0 mm 1 mps 725 mmHg 51%
    11:00 +12°C° 0 mm 1 mps 726 mmHg 43%
    12:00 +13°C° 0 mm 2 mps 725 mmHg 41%
    13:00 +13°C° 0 mm 2 mps 725 mmHg 39%
    14:00 +14°C° 0 mm 2 mps 725 mmHg 38%
    15:00 +14°C° 0 mm 2 mps 725 mmHg 40%
    16:00 +13°C° 0 mm 2 mps 725 mmHg 43%
    17:00 +13°C° 0 mm 2 mps 725 mmHg 46%
    18:00 +10°C° 0 mm 2 mps 725 mmHg 51%
    19:00 +9°C° 0 mm 1 mps 725 mmHg 56%
    20:00 +8°C° 0 mm 1 mps 726 mmHg 61%
    21:00 +7°C° 0 mm 1 mps 726 mmHg 62%
    22:00 +7°C° 0 mm 1 mps 726 mmHg 64%
    23:00 +6°C° 0 mm 1 mps 726 mmHg 65%

    21 February, Thursday

    Time Temperature Precipitation Wind Pressure Humidity
    00:00 +6°C° 0 mm 1 mps 726 mmHg 64%
    01:00 +5°C° 0 mm 1 mps 726 mmHg 62%
    02:00 +5°C° 0 mm 1 mps 726 mmHg 61%
    03:00 +5°C° 0 mm 1 mps 726 mmHg 62%
    04:00 +5°C° 0 mm 1 mps 726 mmHg 63%
    05:00 +5°C° 0 mm 1 mps 726 mmHg 64%
    06:00 +5°C° 0 mm 1 mps 726 mmHg 64%
    07:00 +5°C° 0 mm 1 mps 727 mmHg 65%
    08:00 +6°C° 0 mm 1 mps 727 mmHg 66%
    09:00 +8°C° 0 mm 1 mps 727 mmHg 60%
    10:00 +10°C° 0 mm 1 mps 727 mmHg 54%
    11:00 +12°C° 0 mm 2 mps 727 mmHg 48%
    12:00 +13°C° 0 mm 2 mps 726 mmHg 45%
    13:00 +13°C° 0 mm 2 mps 726 mmHg 43%
    14:00 +14°C° 0 mm 2 mps 726 mmHg 40%
    15:00 +13°C° 0 mm 2 mps 725 mmHg 42%
    16:00 +13°C° 0 mm 2 mps 725 mmHg 44%
    17:00 +13°C° 0 mm 1 mps 725 mmHg 46%
    18:00 +11°C° 0 mm 1 mps 725 mmHg 50%
    19:00 +9°C° 0 mm 1 mps 725 mmHg 54%
    20:00 +8°C° 0 mm 1 mps 725 mmHg 59%
    21:00 +7°C° 0 mm 1 mps 725 mmHg 60%
    22:00 +7°C° 0 mm 1 mps 725 mmHg 61%
    23:00 +6°C° 0 mm 1 mps 725 mmHg 62%
    Show more